Time,TemperatureF,DewpointF,PressureIn,WindDirection,WindDirectionDegrees,WindSpeedMPH,WindSpeedGustMPH,Humidity,HourlyPrecipIn,Conditions,Clouds,dailyrainin,SoftwareType,DateUTC
2015-03-27 00:05:00,65.2,64.6,29.80,SW,214,2.0,2.0,98,0.00,,,0.00,Wunderground v.1.15,2015-03-27 05:05:00,
2015-03-27 00:11:00,65.2,64.6,29.80,SW,215,2.0,3.0,98,0.00,,,0.00,Wunderground v.1.15,2015-03-27 05:11:00,
2015-03-27 00:17:00,65.2,64.6,29.80,SW,215,0.0,3.0,98,0.00,,,0.00,Wunderground v.1.15,2015-03-27 05:17:00,
2015-03-27 00:23:00,65.1,64.5,29.80,SW,219,0.0,2.0,98,0.00,,,0.00,Wunderground v.1.15,2015-03-27 05:23:00,
2015-03-27 00:29:00,65.0,64.4,29.80,SW,222,1.0,2.0,98,0.00,,,0.00,Wunderground v.1.15,2015-03-27 05:29:00,
2015-03-27 00:34:00,65.0,64.1,29.80,SW,227,0.0,2.0,97,0.00,,,0.00,Wunderground v.1.15,2015-03-27 05:34:00,
2015-03-27 00:40:00,64.9,64.0,29.80,SW,227,0.0,1.0,97,0.00,,,0.00,Wunderground v.1.15,2015-03-27 05:40:00,
2015-03-27 00:45:00,64.8,63.9,29.79,SW,228,3.0,3.0,97,0.00,,,0.00,Wunderground v.1.15,2015-03-27 05:45:00,
2015-03-27 00:51:00,64.7,63.8,29.79,SW,228,0.0,1.0,97,0.00,,,0.00,Wunderground v.1.15,2015-03-27 05:51:00,
2015-03-27 00:57:00,64.7,63.8,29.79,SW,228,0.0,2.0,97,0.00,,,0.00,Wunderground v.1.15,2015-03-27 05:57:00,
2015-03-27 01:03:00,64.6,63.7,29.79,SW,228,0.0,0.0,97,0.00,,,0.00,Wunderground v.1.15,2015-03-27 06:03:00,
2015-03-27 01:09:00,64.5,63.6,29.79,SW,228,1.0,1.0,97,0.00,,,0.00,Wunderground v.1.15,2015-03-27 06:09:00,
2015-03-27 01:15:00,64.4,63.5,29.79,SW,228,0.0,0.0,97,0.00,,,0.00,Wunderground v.1.15,2015-03-27 06:15:00,
2015-03-27 01:21:00,64.4,63.5,29.79,SW,228,0.0,0.0,97,0.00,,,0.00,Wunderground v.1.15,2015-03-27 06:21:00,
2015-03-27 01:27:00,64.3,63.4,29.78,SW,228,2.0,2.0,97,0.00,,,0.00,Wunderground v.1.15,2015-03-27 06:27:00,
2015-03-27 01:32:00,64.3,63.4,29.78,SW,232,2.0,2.0,97,0.00,,,0.00,Wunderground v.1.15,2015-03-27 06:32:00,
2015-03-27 01:38:00,64.3,63.4,29.78,SW,236,3.0,4.0,97,0.00,,,0.00,Wunderground v.1.15,2015-03-27 06:38:00,
2015-03-27 01:44:00,64.3,63.4,29.78,WNW,300,1.0,2.0,97,0.00,,,0.00,Wunderground v.1.15,2015-03-27 06:44:00,
2015-03-27 01:50:00,64.3,63.4,29.78,WNW,300,0.0,1.0,97,0.00,,,0.00,Wunderground v.1.15,2015-03-27 06:50:00,
2015-03-27 01:56:00,64.3,63.4,29.78,WNW,300,0.0,1.0,97,0.00,,,0.00,Wunderground v.1.15,2015-03-27 06:56:00,
2015-03-27 02:01:00,64.3,63.4,29.78,WNW,298,0.0,1.0,97,0.00,,,0.00,Wunderground v.1.15,2015-03-27 07:01:00,
2015-03-27 02:06:00,64.3,63.4,29.78,WNW,297,1.0,3.0,97,0.00,,,0.00,Wunderground v.1.15,2015-03-27 07:06:00,
2015-03-27 02:11:00,64.3,63.4,29.78,WNW,297,0.0,1.0,97,0.00,,,0.00,Wunderground v.1.15,2015-03-27 07:11:00,
2015-03-27 02:16:00,64.3,63.1,29.78,WNW,298,0.0,3.0,96,0.00,,,0.00,Wunderground v.1.15,2015-03-27 07:16:00,
2015-03-27 02:21:00,64.3,63.1,29.78,WNW,299,2.0,3.0,96,0.00,,,0.00,Wunderground v.1.15,2015-03-27 07:21:00,
2015-03-27 02:26:00,64.3,63.1,29.78,NNW,327,3.0,6.0,96,0.00,,,0.00,Wunderground v.1.15,2015-03-27 07:26:00,
2015-03-27 02:31:00,64.4,62.9,29.78,NNW,328,1.0,2.0,95,0.00,,,0.00,Wunderground v.1.15,2015-03-27 07:31:00,
2015-03-27 02:36:00,64.4,62.9,29.78,WNW,300,4.0,6.0,95,0.00,,,0.00,Wunderground v.1.15,2015-03-27 07:36:00,
2015-03-27 02:41:00,64.4,62.9,29.77,WNW,300,1.0,3.0,95,0.00,,,0.00,Wunderground v.1.15,2015-03-27 07:41:00,
2015-03-27 02:46:00,64.4,62.9,29.78,NW,312,1.0,5.0,95,0.00,,,0.00,Wunderground v.1.15,2015-03-27 07:46:00,
2015-03-27 02:52:00,64.5,62.7,29.77,NW,315,2.0,4.0,94,0.00,,,0.00,Wunderground v.1.15,2015-03-27 07:52:00,
2015-03-27 02:57:00,64.5,62.7,29.78,NW,323,1.0,6.0,94,0.00,,,0.00,Wunderground v.1.15,2015-03-27 07:57:00,
2015-03-27 03:02:00,64.4,62.6,29.78,NNW,329,1.0,5.0,94,0.00,,,0.00,Wunderground v.1.15,2015-03-27 08:02:00,
2015-03-27 03:07:00,64.4,62.6,29.78,NNW,328,1.0,5.0,94,0.00,,,0.00,Wunderground v.1.15,2015-03-27 08:07:00,
2015-03-27 03:12:00,64.4,62.6,29.78,NNW,327,1.0,3.0,94,0.00,,,0.00,Wunderground v.1.15,2015-03-27 08:12:00,
2015-03-27 03:17:00,64.4,62.6,29.78,NNW,329,2.0,6.0,94,0.00,,,0.00,Wunderground v.1.15,2015-03-27 08:17:00,
2015-03-27 03:22:00,64.3,62.5,29.78,NNW,333,1.0,3.0,94,0.00,,,0.00,Wunderground v.1.15,2015-03-27 08:22:00,
2015-03-27 03:27:00,64.3,62.5,29.78,NW,306,5.0,8.0,94,0.00,,,0.00,Wunderground v.1.15,2015-03-27 08:27:00,
2015-03-27 03:32:00,64.1,62.6,29.78,NW,304,7.0,10.0,95,0.00,,,0.00,Wunderground v.1.15,2015-03-27 08:32:00,
2015-03-27 03:37:00,63.2,60.5,29.78,WNW,297,4.0,12.0,91,0.00,,,0.00,Wunderground v.1.15,2015-03-27 08:37:00,
2015-03-27 03:42:00,62.2,59.5,29.78,NW,304,7.0,7.0,91,0.00,,,0.00,Wunderground v.1.15,2015-03-27 08:42:00,
2015-03-27 03:47:00,61.3,59.0,29.78,WNW,302,6.0,9.0,92,0.00,,,0.00,Wunderground v.1.15,2015-03-27 08:47:00,
2015-03-27 03:52:00,60.6,58.3,29.79,NW,317,2.0,5.0,92,0.00,,,0.00,Wunderground v.1.15,2015-03-27 08:52:00,
2015-03-27 03:57:00,59.9,57.6,29.79,WNW,297,1.0,9.0,92,0.00,,,0.00,Wunderground v.1.15,2015-03-27 08:57:00,
2015-03-27 04:02:00,59.5,57.2,29.79,NW,315,9.0,11.0,92,0.00,,,0.00,Wunderground v.1.15,2015-03-27 09:02:00,
2015-03-27 04:07:00,59.0,56.4,29.79,WNW,297,3.0,11.0,91,0.00,,,0.00,Wunderground v.1.15,2015-03-27 09:07:00,
2015-03-27 04:12:00,58.6,56.0,29.79,WNW,297,3.0,10.0,91,0.00,,,0.00,Wunderground v.1.15,2015-03-27 09:12:00,
2015-03-27 04:17:00,58.4,56.1,29.79,NW,305,1.0,10.0,92,0.00,,,0.00,Wunderground v.1.15,2015-03-27 09:17:00,
2015-03-27 04:22:00,58.2,55.9,29.79,West,273,2.0,10.0,92,0.00,,,0.00,Wunderground v.1.15,2015-03-27 09:22:00,
2015-03-27 04:27:00,58.0,55.7,29.79,WNW,299,0.0,10.0,92,0.00,,,0.00,Wunderground v.1.15,2015-03-27 09:27:00,
2015-03-27 04:32:00,57.9,55.6,29.79,WNW,287,2.0,10.0,92,0.00,,,0.00,Wunderground v.1.15,2015-03-27 09:32:00,
2015-03-27 04:37:00,57.8,55.5,29.79,West,269,4.0,10.0,92,0.00,,,0.00,Wunderground v.1.15,2015-03-27 09:37:00,
2015-03-27 04:42:00,57.7,55.4,29.79,WNW,296,1.0,6.0,92,0.00,,,0.00,Wunderground v.1.15,2015-03-27 09:42:00,
2015-03-27 04:47:00,57.5,54.9,29.79,WNW,298,2.0,8.0,91,0.00,,,0.00,Wunderground v.1.15,2015-03-27 09:47:00,
2015-03-27 04:52:00,57.4,54.8,29.79,NNW,348,1.0,6.0,91,0.00,,,0.00,Wunderground v.1.15,2015-03-27 09:52:00,
2015-03-27 04:57:00,57.2,54.6,29.79,WNW,297,2.0,8.0,91,0.00,,,0.00,Wunderground v.1.15,2015-03-27 09:57:00,
2015-03-27 05:02:00,57.0,54.4,29.80,NW,309,3.0,9.0,91,0.00,,,0.00,Wunderground v.1.15,2015-03-27 10:02:00,
2015-03-27 05:07:00,57.0,54.4,29.80,NW,316,3.0,10.0,91,0.00,,,0.00,Wunderground v.1.15,2015-03-27 10:07:00,
2015-03-27 05:12:00,56.9,54.6,29.80,WNW,294,2.0,10.0,92,0.00,,,0.00,Wunderground v.1.15,2015-03-27 10:12:00,
2015-03-27 05:17:00,56.8,54.5,29.80,WNW,290,1.0,10.0,92,0.00,,,0.00,Wunderground v.1.15,2015-03-27 10:17:00,
2015-03-27 05:22:00,56.8,54.5,29.80,NW,307,9.0,9.0,92,0.00,,,0.00,Wunderground v.1.15,2015-03-27 10:22:00,
2015-03-27 05:27:00,56.7,54.1,29.80,NW,321,2.0,9.0,91,0.00,,,0.00,Wunderground v.1.15,2015-03-27 10:27:00,
2015-03-27 05:32:00,56.5,53.9,29.81,NNW,331,4.0,8.0,91,0.00,,,0.00,Wunderground v.1.15,2015-03-27 10:32:00,
2015-03-27 05:37:00,56.4,53.8,29.81,NW,309,3.0,9.0,91,0.00,,,0.00,Wunderground v.1.15,2015-03-27 10:37:00,
2015-03-27 05:42:00,56.3,53.7,29.81,WNW,294,3.0,6.0,91,0.00,,,0.00,Wunderground v.1.15,2015-03-27 10:42:00,
2015-03-27 05:47:00,56.1,53.5,29.81,WNW,302,1.0,6.0,91,0.00,,,0.00,Wunderground v.1.15,2015-03-27 10:47:00,
2015-03-27 05:52:00,56.0,53.4,29.82,WNW,297,5.0,6.0,91,0.00,,,0.00,Wunderground v.1.15,2015-03-27 10:52:00,
2015-03-27 05:57:00,55.9,53.3,29.82,NW,309,4.0,10.0,91,0.00,,,0.00,Wunderground v.1.15,2015-03-27 10:57:00,
2015-03-27 06:03:00,55.8,53.2,29.83,NW,311,4.0,9.0,91,0.00,,,0.00,Wunderground v.1.15,2015-03-27 11:03:00,
2015-03-27 06:08:00,55.7,53.1,29.83,WNW,295,4.0,9.0,91,0.00,,,0.00,Wunderground v.1.15,2015-03-27 11:08:00,
2015-03-27 06:13:00,55.6,53.0,29.83,WNW,302,3.0,10.0,91,0.00,,,0.00,Wunderground v.1.15,2015-03-27 11:13:00,
2015-03-27 06:18:00,55.4,52.8,29.83,WNW,303,2.0,10.0,91,0.00,,,0.00,Wunderground v.1.15,2015-03-27 11:18:00,
2015-03-27 06:23:00,55.2,52.6,29.83,NW,305,3.0,4.0,91,0.00,,,0.00,Wunderground v.1.15,2015-03-27 11:23:00,
2015-03-27 06:28:00,55.1,52.5,29.83,WNW,300,0.0,6.0,91,0.00,,,0.00,Wunderground v.1.15,2015-03-27 11:28:00,
2015-03-27 06:33:00,55.1,52.5,29.83,WNW,303,2.0,6.0,91,0.00,,,0.00,Wunderground v.1.15,2015-03-27 11:33:00,
2015-03-27 06:38:00,55.0,52.4,29.84,WNW,300,2.0,6.0,91,0.00,,,0.00,Wunderground v.1.15,2015-03-27 11:38:00,
2015-03-27 06:43:00,54.9,52.3,29.84,WNW,297,3.0,6.0,91,0.00,,,0.00,Wunderground v.1.15,2015-03-27 11:43:00,
2015-03-27 06:48:00,54.8,52.2,29.85,WNW,284,6.0,9.0,91,0.00,,,0.00,Wunderground v.1.15,2015-03-27 11:48:00,
2015-03-27 06:53:00,54.6,52.0,29.85,NW,305,4.0,6.0,91,0.00,,,0.00,Wunderground v.1.15,2015-03-27 11:53:00,
2015-03-27 06:58:00,54.4,51.8,29.85,WNW,294,1.0,6.0,91,0.00,,,0.00,Wunderground v.1.15,2015-03-27 11:58:00,
2015-03-27 07:03:00,54.3,51.7,29.85,NW,313,0.0,5.0,91,0.00,,,0.00,Wunderground v.1.15,2015-03-27 12:03:00,
2015-03-27 07:08:00,54.1,51.8,29.85,WNW,297,2.0,10.0,92,0.00,,,0.00,Wunderground v.1.15,2015-03-27 12:08:00,
2015-03-27 07:13:00,54.0,51.7,29.85,WNW,293,0.0,4.0,92,0.00,,,0.00,Wunderground v.1.15,2015-03-27 12:13:00,
2015-03-27 07:18:00,53.7,51.1,29.86,NW,306,6.0,11.0,91,0.00,,,0.00,Wunderground v.1.15,2015-03-27 12:18:00,
2015-03-27 07:23:00,53.4,51.1,29.86,WNW,300,1.0,8.0,92,0.00,,,0.00,Wunderground v.1.15,2015-03-27 12:23:00,
2015-03-27 07:28:00,53.1,50.8,29.86,NW,313,7.0,9.0,92,0.00,,,0.00,Wunderground v.1.15,2015-03-27 12:28:00,
2015-03-27 07:33:00,52.8,50.5,29.86,WNW,302,3.0,9.0,92,0.00,,,0.00,Wunderground v.1.15,2015-03-27 12:33:00,
2015-03-27 07:38:00,52.6,50.3,29.87,NW,307,2.0,9.0,92,0.00,,,0.00,Wunderground v.1.15,2015-03-27 12:38:00,
2015-03-27 07:43:00,52.5,50.2,29.87,NW,325,0.0,7.0,92,0.00,,,0.00,Wunderground v.1.15,2015-03-27 12:43:00,
2015-03-27 07:48:00,52.4,50.1,29.87,WNW,303,2.0,8.0,92,0.00,,,0.00,Wunderground v.1.15,2015-03-27 12:48:00,
2015-03-27 07:53:00,52.3,50.0,29.87,WNW,300,0.0,5.0,92,0.00,,,0.00,Wunderground v.1.15,2015-03-27 12:53:00,
2015-03-27 07:58:00,52.3,50.0,29.88,NW,321,2.0,7.0,92,0.00,,,0.00,Wunderground v.1.15,2015-03-27 12:58:00,
2015-03-27 08:03:00,52.2,49.9,29.87,NW,304,3.0,13.0,92,0.00,,,0.00,Wunderground v.1.15,2015-03-27 13:03:00,
2015-03-27 08:08:00,52.1,49.6,29.87,NW,323,2.0,13.0,91,0.00,,,0.00,Wunderground v.1.15,2015-03-27 13:08:00,
2015-03-27 08:13:00,52.0,49.5,29.88,West,273,2.0,13.0,91,0.00,,,0.00,Wunderground v.1.15,2015-03-27 13:13:00,
2015-03-27 08:18:00,52.1,49.6,29.88,NW,309,3.0,13.0,91,0.00,,,0.00,Wunderground v.1.15,2015-03-27 13:18:00,
2015-03-27 08:23:00,52.0,49.5,29.88,NW,321,0.0,14.0,91,0.00,,,0.00,Wunderground v.1.15,2015-03-27 13:23:00,
2015-03-27 08:28:00,52.0,49.5,29.89,South,188,0.0,14.0,91,0.00,,,0.00,Wunderground v.1.15,2015-03-27 13:28:00,
2015-03-27 08:33:00,52.0,49.5,29.90,WNW,287,5.0,9.0,91,0.00,,,0.00,Wunderground v.1.15,2015-03-27 13:33:00,
2015-03-27 08:39:00,51.9,49.4,29.89,NW,309,2.0,11.0,91,0.00,,,0.00,Wunderground v.1.15,2015-03-27 13:39:00,
2015-03-27 08:44:00,51.5,49.0,29.90,WNW,286,3.0,10.0,91,0.00,,,0.00,Wunderground v.1.15,2015-03-27 13:44:00,
2015-03-27 08:49:00,51.3,48.8,29.90,WNW,298,1.0,10.0,91,0.00,,,0.00,Wunderground v.1.15,2015-03-27 13:49:00,
2015-03-27 08:54:00,51.2,49.0,29.90,WNW,290,4.0,9.0,92,0.00,,,0.00,Wunderground v.1.15,2015-03-27 13:54:00,
2015-03-27 08:59:00,51.2,48.7,29.90,WNW,302,1.0,9.0,91,0.00,,,0.00,Wunderground v.1.15,2015-03-27 13:59:00,
2015-03-27 09:04:00,51.0,48.5,29.91,NW,307,0.0,13.0,91,0.00,,,0.00,Wunderground v.1.15,2015-03-27 14:04:00,
2015-03-27 09:09:00,51.1,48.6,29.91,WNW,298,4.0,13.0,91,0.00,,,0.00,Wunderground v.1.15,2015-03-27 14:09:00,
2015-03-27 09:14:00,51.2,48.4,29.91,South,170,0.0,8.0,90,0.00,,,0.00,Wunderground v.1.15,2015-03-27 14:14:00,
2015-03-27 09:19:00,51.2,48.1,29.91,WNW,297,2.0,8.0,89,0.00,,,0.00,Wunderground v.1.15,2015-03-27 14:19:00,
2015-03-27 09:24:00,51.4,48.0,29.91,WNW,286,4.0,14.0,88,0.00,,,0.00,Wunderground v.1.15,2015-03-27 14:24:00,
2015-03-27 09:29:00,51.5,48.1,29.91,WNW,298,2.0,14.0,88,0.00,,,0.00,Wunderground v.1.15,2015-03-27 14:29:00,
2015-03-27 09:34:00,51.5,47.8,29.91,NW,315,4.0,9.0,87,0.00,,,0.00,Wunderground v.1.15,2015-03-27 14:34:00,
2015-03-27 09:39:00,51.8,48.4,29.91,WNW,300,2.0,9.0,88,0.00,,,0.00,Wunderground v.1.15,2015-03-27 14:39:00,
2015-03-27 09:44:00,52.1,48.3,29.92,WNW,296,4.0,6.0,87,0.00,,,0.00,Wunderground v.1.15,2015-03-27 14:44:00,
2015-03-27 09:49:00,52.4,48.6,29.92,WNW,284,2.0,6.0,87,0.00,,,0.00,Wunderground v.1.15,2015-03-27 14:49:00,
2015-03-27 09:54:00,52.4,47.7,29.92,NW,304,0.0,10.0,84,0.00,,,0.00,Wunderground v.1.15,2015-03-27 14:54:00,
2015-03-27 09:59:00,52.5,47.8,29.92,West,279,7.0,11.0,84,0.00,,,0.00,Wunderground v.1.15,2015-03-27 14:59:00,
2015-03-27 10:04:00,52.7,48.3,29.92,WNW,286,7.0,8.0,85,0.00,,,0.00,Wunderground v.1.15,2015-03-27 15:04:00,
2015-03-27 10:09:00,52.9,48.5,29.92,WNW,294,4.0,15.0,85,0.00,,,0.00,Wunderground v.1.15,2015-03-27 15:09:00,
2015-03-27 10:14:00,53.2,48.8,29.92,WNW,285,5.0,9.0,85,0.00,,,0.00,Wunderground v.1.15,2015-03-27 15:14:00,
2015-03-27 10:19:00,53.4,48.4,29.92,NW,326,6.0,12.0,83,0.00,,,0.00,Wunderground v.1.15,2015-03-27 15:19:00,
2015-03-27 10:24:00,53.4,48.4,29.93,NW,315,4.0,10.0,83,0.00,,,0.00,Wunderground v.1.15,2015-03-27 15:24:00,
2015-03-27 10:29:00,53.3,48.3,29.93,NW,310,7.0,13.0,83,0.00,,,0.00,Wunderground v.1.15,2015-03-27 15:29:00,
2015-03-27 10:34:00,53.1,48.4,29.93,WNW,299,3.0,8.0,84,0.00,,,0.00,Wunderground v.1.15,2015-03-27 15:34:00,
2015-03-27 10:39:00,53.4,48.4,29.94,West,274,1.0,11.0,83,0.00,,,0.00,Wunderground v.1.15,2015-03-27 15:39:00,
2015-03-27 10:44:00,53.6,48.2,29.94,NW,317,3.0,11.0,82,0.00,,,0.00,Wunderground v.1.15,2015-03-27 15:44:00,
2015-03-27 10:49:00,53.8,48.4,29.94,NW,309,4.0,11.0,82,0.00,,,0.00,Wunderground v.1.15,2015-03-27 15:49:00,
2015-03-27 10:54:00,53.7,47.7,29.94,NW,324,5.0,14.0,80,0.00,,,0.00,Wunderground v.1.15,2015-03-27 15:54:00,
2015-03-27 10:59:00,54.3,48.3,29.94,NW,308,4.0,14.0,80,0.00,,,0.00,Wunderground v.1.15,2015-03-27 15:59:00,
2015-03-27 11:04:00,55.1,48.0,29.94,WNW,292,2.0,13.0,77,0.00,,,0.00,Wunderground v.1.15,2015-03-27 16:04:00,
2015-03-27 11:09:00,55.4,48.3,29.94,West,269,2.0,13.0,77,0.00,,,0.00,Wunderground v.1.15,2015-03-27 16:09:00,
2015-03-27 11:14:00,55.1,47.3,29.94,NW,314,3.0,12.0,75,0.00,,,0.00,Wunderground v.1.15,2015-03-27 16:14:00,
2015-03-27 11:19:00,55.1,47.7,29.94,WNW,295,10.0,12.0,76,0.00,,,0.00,Wunderground v.1.15,2015-03-27 16:19:00,
2015-03-27 11:25:00,55.5,48.4,29.93,NNW,328,2.0,6.0,77,0.00,,,0.00,Wunderground v.1.15,2015-03-27 16:25:00,
2015-03-27 11:30:00,56.2,48.4,29.94,West,268,0.0,3.0,75,0.00,,,0.00,Wunderground v.1.15,2015-03-27 16:30:00,
2015-03-27 11:35:00,56.6,48.0,29.94,WNW,292,10.0,10.0,73,0.00,,,0.00,Wunderground v.1.15,2015-03-27 16:35:00,
2015-03-27 11:40:00,56.8,48.2,29.94,SSE,159,0.0,3.0,73,0.00,,,0.00,Wunderground v.1.15,2015-03-27 16:40:00,
2015-03-27 11:45:00,58.0,50.1,29.94,WNW,297,5.0,5.0,75,0.00,,,0.00,Wunderground v.1.15,2015-03-27 16:45:00,
2015-03-27 11:50:00,58.6,49.2,29.94,WNW,290,1.0,2.0,71,0.00,,,0.00,Wunderground v.1.15,2015-03-27 16:50:00,
2015-03-27 11:55:00,58.9,48.7,29.94,WNW,291,0.0,5.0,69,0.00,,,0.00,Wunderground v.1.15,2015-03-27 16:55:00,
2015-03-27 12:00:00,59.1,49.3,29.93,NW,311,1.0,3.0,70,0.00,,,0.00,Wunderground v.1.15,2015-03-27 17:00:00,
2015-03-27 12:05:00,59.9,48.5,29.93,WNW,298,2.0,8.0,66,0.00,,,0.00,Wunderground v.1.15,2015-03-27 17:05:00,
2015-03-27 12:10:00,60.4,48.2,29.94,West,271,1.0,3.0,64,0.00,,,0.00,Wunderground v.1.15,2015-03-27 17:10:00,
2015-03-27 12:15:00,60.6,47.9,29.93,WNW,292,4.0,9.0,63,0.00,,,0.00,Wunderground v.1.15,2015-03-27 17:15:00,
2015-03-27 12:20:00,60.7,48.4,29.93,NW,321,1.0,3.0,64,0.00,,,0.00,Wunderground v.1.15,2015-03-27 17:20:00,
2015-03-27 12:25:00,61.4,47.8,29.93,WNW,288,6.0,11.0,61,0.00,,,0.00,Wunderground v.1.15,2015-03-27 17:25:00,
2015-03-27 12:30:00,61.6,47.1,29.93,WNW,303,5.0,7.0,59,0.00,,,0.00,Wunderground v.1.15,2015-03-27 17:30:00,
2015-03-27 12:35:00,61.9,49.2,29.92,NW,317,1.0,11.0,63,0.00,,,0.00,Wunderground v.1.15,2015-03-27 17:35:00,
2015-03-27 12:40:00,62.5,46.1,29.92,NW,321,4.0,9.0,55,0.00,,,0.00,Wunderground v.1.15,2015-03-27 17:40:00,
2015-03-27 12:45:00,62.8,47.3,29.92,WNW,284,0.0,9.0,57,0.00,,,0.00,Wunderground v.1.15,2015-03-27 17:45:00,
2015-03-27 12:50:00,63.3,46.9,29.93,WNW,294,4.0,4.0,55,0.00,,,0.00,Wunderground v.1.15,2015-03-27 17:50:00,
2015-03-27 12:55:00,63.6,46.1,29.92,NW,313,1.0,10.0,53,0.00,,,0.00,Wunderground v.1.15,2015-03-27 17:55:00,
2015-03-27 13:00:00,64.1,47.6,29.92,NW,314,5.0,5.0,55,0.00,,,0.00,Wunderground v.1.15,2015-03-27 18:00:00,
2015-03-27 13:05:00,64.3,43.1,29.92,NW,322,5.0,19.0,46,0.00,,,0.00,Wunderground v.1.15,2015-03-27 18:05:00,
2015-03-27 13:10:00,64.5,43.8,29.92,WNW,296,5.0,5.0,47,0.00,,,0.00,Wunderground v.1.15,2015-03-27 18:10:00,
2015-03-27 13:15:00,65.0,43.1,29.92,WNW,296,3.0,9.0,45,0.00,,,0.00,Wunderground v.1.15,2015-03-27 18:15:00,
2015-03-27 13:20:00,65.3,45.1,29.91,NW,311,3.0,3.0,48,0.00,,,0.00,Wunderground v.1.15,2015-03-27 18:20:00,
2015-03-27 13:25:00,65.3,42.8,29.91,NW,309,7.0,11.0,44,0.00,,,0.00,Wunderground v.1.15,2015-03-27 18:25:00,
2015-03-27 13:30:00,64.8,42.4,29.91,WNW,290,2.0,7.0,44,0.00,,,0.00,Wunderground v.1.15,2015-03-27 18:30:00,
2015-03-27 13:35:00,64.8,42.9,29.91,NW,312,4.0,10.0,45,0.00,,,0.00,Wunderground v.1.15,2015-03-27 18:35:00,
2015-03-27 13:40:00,65.2,43.3,29.91,NW,308,8.0,8.0,45,0.00,,,0.00,Wunderground v.1.15,2015-03-27 18:40:00,
2015-03-27 13:45:00,65.7,44.9,29.90,NW,311,4.0,11.0,47,0.00,,,0.00,Wunderground v.1.15,2015-03-27 18:45:00,
2015-03-27 13:50:00,66.1,43.5,29.90,NW,315,5.0,5.0,44,0.00,,,0.00,Wunderground v.1.15,2015-03-27 18:50:00,
2015-03-27 13:55:00,66.4,44.4,29.90,NW,309,6.0,15.0,45,0.00,,,0.00,Wunderground v.1.15,2015-03-27 18:55:00,
2015-03-27 14:00:00,66.5,44.5,29.89,WNW,295,5.0,8.0,45,0.00,,,0.00,Wunderground v.1.15,2015-03-27 19:00:00,
2015-03-27 14:05:00,66.3,44.3,29.90,NW,311,4.0,17.0,45,0.00,,,0.00,Wunderground v.1.15,2015-03-27 19:05:00,
2015-03-27 14:10:00,66.6,44.0,29.89,NW,305,3.0,6.0,44,0.00,,,0.00,Wunderground v.1.15,2015-03-27 19:10:00,